Regional Weather Roundup
Issued by NWS

Home | Current Version | Previous Version | Text Only | Print | Product List | Glossary Off
Versions: 1 2 3 4 5 6 7 8 9 10 11 12 13 14 15 16 17 18 19 20 21 22 23 24 25 26 27 28 29 30 31 32 33 34 35 36 37 38 39 40 41 42 43 44 45 46 47 48 49 50

000
ASUS43 KMPX 192010
RWRMN
WEATHER ROUNDUP FOR MINNESOTA
NATIONAL WEATHER SERVICE TWIN CITIES/CHANHASSEN MN
300 PM CDT SUN OCT 19 2014


NOTE: "FAIR" INDICATES FEW OR NO CLOUDS BELOW 12,000 FEET WITH NO
SIGNIFICANT WEATHER AND/OR OBSTRUCTIONS TO VISIBILITY. N/A MEANS
CURRENT SKY AND/OR WEATHER CONDITIONS ARE NOT AVAILABLE.

MNZ060>063-068>070-192100-
   Twin Cities Metro

CITY           SKY/WX    TMP DP  RH WIND       PRES   REMARKS
TWIN CITIES    MOSUNNY   65  43  44 SW14      29.80F
ST PAUL        SUNNY     64  44  48 SW9       29.81F
CRYSTAL        SUNNY     66  44  45 S10       29.79F
BLAINE         MOSUNNY   66  46  48 SW12G17   29.79F
LAKEVILLE      SUNNY     64  45  48 W12G17    29.81F
EDEN PRAIRIE   SUNNY     67  44  43 SW10      29.79F
SOUTH ST PAUL  SUNNY     66  43  43 W12G18    29.80F
LAKE ELMO      FAIR      61  45  55 W10       29.82F
$$
MNZ001>005-007-008-013>017-022>024-027-028-192100-
   Northwest Minnesota

CITY           SKY/WX    TMP DP  RH WIND       PRES   REMARKS
BEMIDJI        SUNNY     62  43  50 NW15G24   29.75S
HALLOCK        SUNNY     63  45  51 NW16G24   29.81R
ROSEAU         SUNNY     63  45  51 NW20G28   29.77R
WARROAD        SUNNY     61  46  59 NW21      29.76R
THIEF RVR FALL SUNNY     61  45  55 NW23      29.80R
CROOKSTON      SUNNY     63  45  51 NW18G25   29.81S
FOSSTON        SUNNY     63  43  48 W17G23    29.80R
DETROIT LAKES  SUNNY     63  43  48 NW18G24   29.81S
MOORHEAD       SUNNY     72  32  23 NW15G26   29.81S
PARK RAPIDS    SUNNY     65  41  41 NW18      29.76S
MAHNOMEN       FAIR      62  43  51 NW16      29.80S
$$
MNZ006-009>011-018-025>026-192100-
   North Central Minnesota

CITY           SKY/WX    TMP DP  RH WIND       PRES   REMARKS
BAUDETTE       MOSUNNY   59  43  55 NW17G23   29.74R
FLAG ISLAND    SUNNY     55  43  62 NW17      29.73R
INTL FALLS     SUNNY     60  42  51 W16       29.70S
WASKISH        SUNNY     57  46  67 SW10      29.73S
BIG FORK       SUNNY     64  43  45 NW10G16   29.71S
LONGVILLE      SUNNY     66  43  42 W7        29.73F
GRAND RAPIDS   SUNNY     61  41  48 NW12G17   29.73S
CRANE LAKE     SUNNY     57  43  58 NW5       29.71S
ORR            SUNNY     63  39  42 W8        29.68S
COOK           SUNNY     61  43  51 W8        29.70F
WALKER         FAIR      64  41  42 NW10G17   29.74S
$$
MNZ012-019>021-037-192100-
   Northeast Minnesota

CITY           SKY/WX    TMP DP  RH WIND       PRES   REMARKS
DULUTH         MOSUNNY   61  42  49 SW13      29.71F
ELY            SUNNY     57  39  51 SW12      29.69S
HIBBING        SUNNY     62  41  46 W9        29.70F
EVELETH        SUNNY     59  43  55 W9        29.71S
DULUTH HARBOR  MOSUNNY   61  45  55 SW13      29.72F
TWO HARBORS    SUNNY     61  34  36 SW10G16   29.69F
SILVER BAY     SUNNY     55  43  62 S13       29.69S
GRAND MARAIS     N/A     48  42  80 CALM      29.72F
G MARAIS ARPRT CLOUDY    45  37  76 CALM      29.70F
$$
MNZ029>031-032-039>041-046>048-054>057-064-192100-
   West Central Minnesota

CITY           SKY/WX    TMP DP  RH WIND       PRES   REMARKS
FERGUS FALLS   SUNNY     70  37  30 NW22      29.81S
WHEATON        SUNNY     70  41  35 W16G24    29.83F
MORRIS         SUNNY     70  43  37 NW21      29.80F
ALEXANDRIA     SUNNY     66  43  43 NW13      29.81F
ELBOW LAKE     FAIR      67  43  41 NW13G20   29.81F
WADENA         SUNNY     63  45  51 W14G20    29.78S
GLENWOOD       SUNNY     68  43  40 W16       29.81S
APPLETON       SUNNY     73  37  27 MISG      29.82S
BENSON         SUNNY     72  43  35 NW16      29.81F
ORTONVILLE     SUNNY     72  39  30 NW13G18   29.83S
MADISON        SUNNY     75  39  27 NW18      29.83S
WILLMAR          N/A     70  41  35 W14G21    29.82F
$$
MNZ033>034-036-042>043-049>051-058-059-192100-
   Central Minnesota

CITY           SKY/WX    TMP DP  RH WIND       PRES   REMARKS
ST CLOUD       SUNNY     71  44  37 W12       29.77F
SAUK CENTRE    FAIR      66  45  45 W13G21    29.79F
PAYNESVILLE    SUNNY     67  43  42 SW16      29.80F
AITKIN         SUNNY     66  45  45 W8        29.72F
PINE RIVER     SUNNY     66  46  48 W12G20    29.78S
BRAINERD       SUNNY     64  43  46 W14       29.75F
STAPLES        SUNNY     64  43  45 W13G21    29.77S
LONG PRAIRIE   FAIR      64  43  45 W10       29.78F
LITTLE FALLS   SUNNY     66  41  39 W9G16     29.76F
LITCHFIELD     SUNNY     70  45  40 W8G17     29.80F
BUFFALO        SUNNY     66  43  42 SW7       29.80F
MAPLE LAKE     SUNNY     68  47  46 SW7       29.80F
$$
MNZ037-044-045-052-053-192100-
   East Central Minnesota

CITY           SKY/WX    TMP DP  RH WIND       PRES   REMARKS
PRINCETON      SUNNY     68  45  42 W10G17    29.78S
MORA           SUNNY     61  43  51 W12       29.77F
CAMBRIDGE      SUNNY     64  46  52 SW9       29.76F
RUSH CITY      SUNNY     62  44  52 SW8       29.77F
MOOSE LAKE     SUNNY     63  41  45 W8G17     29.72S
HINCKLEY       FAIR      61  45  55 SW10G16   29.76F
CLOQUET        SUNNY     63  41  45 SW12G17   29.72F
MCGREGOR       SUNNY     63  43  48 W13       29.74F
$$
MNZ071>073-080-081-089-090-097-098-192100-
   Southwest Minnesota

CITY           SKY/WX    TMP DP  RH WIND       PRES   REMARKS
MONTEVIDEO     SUNNY     73  43  33 N15G22    29.83S
GRANITE FALLS  SUNNY     73  43  33 W16       29.83F
CANBY          SUNNY     73  41  31 NW15G23   29.85S
MARSHALL       SUNNY     73  43  33 NW18G24   29.82F
REDWOOD FALLS  SUNNY     74  43  32 W14G21    29.81F
OLIVIA         SUNNY     72  45  37 W15       29.81F
PIPESTONE      SUNNY     73  41  31 NW16G22   29.87S
WINDOM         SUNNY     72  43  35 W14G20    29.85S
WORTHINGTON    SUNNY     70  45  40 W10       29.88F
JACKSON        SUNNY     70  41  35 W15G22    29.86F
TRACY          SUNNY     74  44  33 NW12      29.84F
SLAYTON        SUNNY     71  41  34 W13       29.87S
$$
MNZ065>067-074>077-082>085-091>093-192100-
   South Central Minnesota

CITY           SKY/WX    TMP DP  RH WIND       PRES   REMARKS
MANKATO        SUNNY     68  43  40 SW12G20   29.83F
NEW ULM        SUNNY     70  45  40 W10G16    29.82F
ST JAMES       SUNNY     72  43  35 W12       29.84F
FAIRMONT       SUNNY     70  34  26 W18       29.86S
GLENCOE        SUNNY     70  46  42 W9        29.80F
FARIBAULT      SUNNY     66  45  45 SW10G20   29.83F
OWATONNA       SUNNY     66  43  42 SW16G24   29.84S
WASECA         SUNNY     66  37  34 W14G20    29.85F
ALBERT LEA     SUNNY     68  45  42 SW18G25   29.84F
$$
MNZ078>079-086>088-094>096-192100-
   Southeast Minnesota

CITY           SKY/WX    TMP DP  RH WIND       PRES   REMARKS
ROCHESTER      SUNNY     63  45  51 SW17G25   29.85F
RED WING       SUNNY     66  43  42 W15       29.81F
STANTON        SUNNY     67  44  44 W13G22    29.81F
DODGE CENTER   SUNNY     64  46  52 SW22      29.84F
WINONA         MOSUNNY   61  45  55 SW7G16    29.86F
AUSTIN         SUNNY    N/A N/A N/A SW20      29.85F
PRESTON        MOSUNNY   60  44  56 SW16G25   29.88F
$$
ABBREVIATIONS USED IN REMARKS
   TC - TEMPERATURES IN CELSIUS
  WCI - WIND CHILL INDEX
   HX - HEAT INDEX
  VSB - VISIBILITY
$$


USA.gov is the U.S. government's official web portal to all federal, state and local government web resources and services.